Probability
0 0 0 0 0 0 0 0 0 0 0 0 0 0 0 0 0 0 0 0 0 0 0 0 0 0 0 0 0 0 0 0 0 0 0 0 0 0 0 0 0 0 0
0 0 0 0 0 0 0 0 0 0 0 0 0 0 0 0 0 0 0 0 0 0 0 0 0 0 0 0 0 0 0 0 0 0 0 0 0 0 0 0 0 0 0
0 0 0 0 0 0 0 0 0 0 0 0 0 0 0 0 0 0 0 0 0 0 0 0 0 0 0 0 0 0 0 0 0 0 0 0 0 0 0 0 0 0 0
0 0 0 0 0 0 0 0 0 0 0 0 0 0 0 0 0 0 0 0 0 0 0 0 0 0 0 0 0 0 0 0 0 0 0 0 0 0 0 0 0 0 0
0 0 0 0 0 0 0 0 0 0 0 0 0 0 0 0 0 0 0 0 0 0 0 0 0 0 0 0 0 0 0 0 0 0 0 0 0 0 0 0 0 0 0
0 0 0 0 0 0 0 0 0 0 0 0 0 0 0 0 0 0 0 0 0 0 0 0 0 0 0 0 0 0 0 0 0 0 0 0 0 0 0 0 0 0 0
0 0 0 0 0 0 0 0 0 0 0 0 0 0 0 0 0 0 0 0 0 0 0 0 0 0 0 0 0 0 0 0 0 0 0 0 0 0 0 0 0 0 0
0 0 0 0 0 0 0 0 0 0 0 0 0 0 0 0 0 0 0 0 0 0 0 0 0 0 0 0 0 0 0 0 0 0 0 0 0 0 0 0 0 0 0
0 0 0 0 0 0 0 0 0 0 0 0 0 0 0 0 0 0 0 0 0 0 0 0 0 0 0 0 0 0 0 0 0 0 0 0 0 0 0 0 0 0 0
0 0 0 0 0 0 0 0 0 0 0 0 0 0 0 0 0 0 0 0 0 0 0 0 0 0 0 0 0 0 0 0 0 0 0 0 0 0 0 0 0 0 0
0 0 0 0 0 0 0 0 0 0 0 0 0 0 0 0 0 0 0 0 0 0 0 0 0 0 0 0 0 0 0 0 0 0 0 0 0 0 0 0 0 0 0
0 0 0 0 0 0 0 0 0 0 0 0 0 0 0 0 0 0 0 0 0 0 0 0 0 0 0 0 0 0 0 0 0 0 0 0 0 0 0 0 0 0 0
0 0 0 0 0 0 0 0 0 0 0 0 0 0 0 0 0 0 0 0 0 0 0 0 0 0 0 0 0 0 0 0 0 0 0 0 0 0 0 0 0 0 0
0 0 0 0 0 0 0 0 0 0 0 0 0 0 0 0 0 0 0 0 0 0 0 0 0 0 0 0 0 0 0 0 0 0 0 0 0 0 0 0 0 0 0
0 0 0 0 0 0 0 0 0 0 0 0 0 0 0 0 0 0 0 0 0 0 0 0 0 0 0 0 0 0 0 0 0 0 0 0 0 0 0 0 0 0 0
0 0 0 0 0 0 0 0 0 0 0 0 0 0 0 0 0 0 0 0 0 0 0 0 0 0 0 0 0 0 0 0 0 0 0 0 0 0 0 0 0 0 0
0 0 0 0 0 0 0 0 0 0 0 0 0 0 0 0 0 0 0 0 0 0 0 0 0 0 0 0 0 0 0 0 0 0 0 0 0 0 0 0 0 0 0
0 0 0 0 0 0 0 0 0 0 0 0 0 0 0 0 0 0 0 0 0 0 0 0 0 0 0 0 0 0 0 0 0 0 0 0 0 0 0 0 0 0 0
0 0 0 0 0 0 0 0 0 0 0 0 0 0 0 0 0 0 0 0 0 0 0 0 0 0 0 0 0 0 0 0 0 0 0 0 0 0 0 0 0 0 0
0 0 0 0 0 0 0 0 0 0 0 0 0 0 0 0 0 0 0 0 0 0 0 0 0 0 0 0 0 0 0 0 0 0 0 0 0 0 0 0 0 0 0
0 0 0 0 0 0 0 0 0 0 0 0 0 0 0 0 0 0 0 0 0 0 0 0 0 0 0 0 0 0 0 0 0 0 0 0 0 0 0 0 0 0 0
0 0 0 0 0 0 0 0 0 0 0 0 0 0 0 0 0 0 0 0 0 0 0 0 0 0 0 0 0 0 0 0 0 0 0 0 0 0 0 0 0 0 0
0 0 0 0 0 0 0 0 0 0 0 0 0 0 0 0 0 0 0 0 0 0 0 0 0 0 0 0 0 0 0 0 0 0 0 0 0 0 0 0 0 0 0
0 0 0 0 0 0 0 0 0 0 0 0 0 0 0 0 0 0 0 0 0 0 0 0 0 0 0 0 0 0 0 0 0 0 0 0 0 0 0 0 0 0 0
0 0 0 0 0 0 0 0 0 0 0 0 0 0 0 0 0 0 0 0 0 0 0 0 0 0 0 0 0 0 0 0 0 0 0 0 0 0 0 0 0 0 0
0 0 0 0 0 0 0 0 0 0 0 0 0 0 0 0 0 0 0 0 0 0 0 0 0 0 0 0 0 0 0 0 0 0 0 0 0 0 0 0 0 0 0
Height
5883 5883 5882 5881 5880 5879 5878 5877 5876 5875 5873 5872 5871 5870 5868 5867 5866 5865 5864 5863 5862 5861 5860 5860 5859 5859 5859 5859 5859 5859 5859 5860 5860 5859 5859 5860 5861 5862 5863 5864 5865 5866 5867
5883 5882 5881 5880 5879 5877 5876 5875 5873 5872 5870 5869 5867 5866 5864 5863 5861 5860 5858 5857 5856 5855 5854 5854 5853 5852 5852 5852 5852 5852 5852 5853 5853 5853 5853 5853 5854 5855 5856 5857 5858 5859 5861
5881 5880 5879 5878 5876 5875 5873 5872 5870 5868 5866 5864 5863 5861 5859 5858 5856 5855 5853 5851 5850 5849 5848 5847 5846 5845 5844 5844 5844 5843 5844 5844 5845 5845 5846 5846 5846 5847 5848 5849 5851 5852 5853
5880 5878 5877 5875 5874 5872 5870 5868 5866 5864 5862 5860 5858 5856 5854 5852 5850 5849 5847 5845 5843 5842 5840 5839 5838 5837 5836 5835 5835 5834 5834 5834 5835 5836 5836 5837 5837 5837 5838 5840 5842 5843 5845
5877 5876 5874 5872 5870 5869 5867 5864 5862 5860 5858 5855 5853 5851 5848 5846 5844 5842 5840 5838 5836 5834 5832 5831 5829 5828 5827 5826 5825 5824 5824 5824 5825 5825 5825 5826 5826 5827 5827 5829 5831 5833 5835
5875 5873 5871 5869 5867 5865 5863 5860 5858 5856 5853 5850 5848 5845 5842 5840 5837 5835 5832 5830 5827 5825 5823 5821 5819 5817 5816 5815 5813 5813 5812 5812 5813 5812 5812 5813 5813 5814 5815 5817 5820 5822 5824
5872 5870 5867 5865 5863 5861 5858 5856 5853 5850 5847 5845 5842 5839 5836 5833 5830 5827 5824 5821 5818 5815 5812 5809 5807 5805 5803 5801 5799 5798 5798 5798 5798 5798 5798 5798 5798 5799 5800 5802 5806 5809 5812
5868 5866 5863 5861 5859 5856 5853 5851 5848 5845 5842 5838 5835 5832 5829 5825 5822 5818 5815 5811 5807 5804 5800 5796 5793 5790 5787 5785 5783 5781 5780 5780 5780 5780 5780 5780 5780 5781 5783 5785 5789 5793 5797
5864 5862 5860 5857 5854 5852 5849 5845 5842 5839 5835 5832 5828 5824 5821 5817 5813 5809 5804 5800 5795 5791 5786 5782 5778 5774 5770 5766 5763 5760 5759 5757 5757 5757 5758 5759 5759 5761 5763 5766 5770 5775 5780
5861 5858 5855 5853 5850 5847 5843 5840 5836 5833 5829 5825 5821 5816 5812 5808 5803 5798 5793 5788 5783 5778 5773 5768 5762 5757 5751 5745 5740 5736 5733 5730 5729 5729 5730 5731 5733 5735 5739 5742 5747 5753 5759
5857 5854 5851 5848 5845 5842 5838 5834 5830 5826 5822 5817 5812 5808 5803 5798 5793 5787 5782 5776 5771 5765 5759 5753 5746 5739 5732 5724 5716 5709 5703 5698 5695 5694 5695 5696 5699 5703 5709 5715 5721 5728 5735
5853 5850 5847 5843 5840 5836 5832 5828 5824 5819 5814 5809 5804 5799 5794 5788 5782 5777 5771 5765 5758 5752 5744 5737 5729 5721 5712 5702 5692 5682 5672 5664 5658 5654 5654 5654 5658 5664 5672 5681 5690 5699 5708
5849 5845 5842 5838 5834 5830 5826 5821 5817 5812 5807 5801 5796 5790 5784 5778 5772 5766 5759 5752 5745 5738 5730 5721 5712 5702 5691 5679 5666 5653 5640 5629 5620 5613 5611 5610 5613 5619 5629 5639 5652 5664 5676
5844 5841 5837 5833 5829 5824 5819 5814 5809 5804 5799 5793 5787 5781 5775 5768 5761 5754 5747 5740 5732 5724 5715 5705 5694 5682 5667 5652 5636 5621 5606 5593 5583 5575 5572 5569 5570 5574 5582 5593 5607 5623 5639
5840 5836 5832 5828 5823 5818 5813 5808 5802 5797 5791 5785 5779 5772 5765 5758 5751 5743 5736 5728 5719 5710 5699 5687 5674 5659 5642 5624 5606 5589 5574 5560 5549 5541 5537 5535 5534 5536 5540 5548 5561 5577 5596
5835 5831 5827 5822 5817 5812 5807 5802 5796 5790 5784 5777 5770 5763 5756 5748 5741 5732 5724 5715 5705 5694 5681 5667 5651 5634 5615 5596 5578 5560 5545 5531 5521 5512 5506 5504 5503 5503 5505 5510 5520 5533 5551
5831 5827 5822 5818 5813 5807 5802 5796 5790 5783 5776 5769 5762 5754 5746 5738 5730 5721 5711 5701 5689 5676 5662 5646 5627 5608 5588 5569 5552 5535 5520 5506 5494 5484 5476 5471 5470 5470 5472 5477 5484 5495 5510
5827 5823 5818 5813 5807 5802 5796 5790 5783 5776 5769 5761 5753 5745 5736 5727 5718 5708 5697 5686 5672 5658 5641 5623 5603 5583 5563 5545 5529 5514 5498 5483 5469 5457 5447 5440 5436 5436 5438 5443 5450 5460 5474
5823 5818 5813 5808 5802 5796 5790 5783 5776 5768 5760 5752 5744 5734 5725 5715 5705 5694 5683 5670 5655 5639 5620 5600 5580 5559 5541 5523 5508 5493 5478 5461 5446 5433 5421 5412 5406 5403 5404 5408 5416 5427 5441
5819 5813 5808 5802 5796 5790 5783 5776 5768 5760 5752 5743 5733 5724 5714 5703 5692 5680 5667 5653 5637 5619 5599 5578 5558 5538 5518 5501 5486 5473 5458 5441 5425 5410 5397 5387 5380 5375 5374 5377 5384 5394 5409
5814 5808 5802 5796 5790 5783 5776 5768 5760 5751 5742 5733 5723 5712 5702 5690 5678 5665 5651 5636 5619 5600 5579 5559 5538 5519 5500 5481 5466 5453 5442 5425 5408 5392 5378 5366 5357 5351 5348 5349 5355 5364 5378
5809 5803 5797 5790 5783 5776 5768 5760 5751 5742 5732 5722 5712 5701 5689 5677 5664 5650 5636 5619 5601 5581 5560 5540 5519 5501 5483 5463 5445 5430 5420 5412 5397 5378 5362 5349 5339 5332 5328 5326 5329 5337 5350
5803 5797 5791 5784 5776 5768 5760 5751 5742 5733 5722 5712 5701 5689 5676 5663 5650 5635 5619 5602 5583 5564 5543 5523 5503 5484 5468 5451 5430 5411 5395 5384 5377 5368 5351 5337 5326 5318 5312 5309 5311 5316 5326
5798 5791 5784 5777 5769 5760 5752 5743 5733 5723 5713 5702 5690 5677 5664 5650 5636 5620 5604 5586 5567 5547 5527 5507 5488 5469 5452 5437 5421 5401 5382 5365 5352 5347 5341 5328 5316 5307 5301 5297 5297 5300 5308
5791 5784 5777 5769 5761 5753 5744 5734 5724 5714 5703 5691 5679 5666 5652 5637 5622 5606 5589 5571 5552 5533 5513 5493 5475 5457 5439 5423 5407 5392 5376 5359 5342 5329 5324 5319 5309 5299 5292 5288 5287 5289 5294
5784 5777 5769 5762 5753 5745 5735 5726 5716 5705 5693 5681 5668 5655 5640 5625 5609 5593 5576 5558 5539 5520 5500 5482 5464 5446 5429 5412 5395 5379 5364 5350 5337 5323 5313 5307 5300 5293 5285 5280 5279 5280 5283
Wind_Speed
5 5 6 8 9 11 12 14 16 18 19 20 22 23 24 25 26 27 28 28 29 30 30 31 32 32 32 32 33 33 33 33 33 35 36 36 36 36 36 35 34 33 31
6 8 9 11 13 14 16 18 19 20 22 23 24 25 26 27 28 29 30 31 32 32 33 34 35 36 36 37 37 38 38 38 37 38 39 39 40 40 39 39 39 38 36
9 11 13 14 16 17 18 20 21 22 23 25 26 27 27 28 29 31 32 33 34 35 36 37 38 39 40 41 41 42 42 42 43 42 43 43 43 44 43 43 43 42 42
13 14 15 17 18 19 20 21 22 23 24 26 27 28 30 31 32 33 34 35 36 37 39 40 41 42 43 44 45 46 46 46 47 47 48 48 48 48 48 47 47 47 46
15 16 18 19 20 20 21 22 23 25 26 27 29 30 31 32 33 35 36 37 38 39 41 42 43 44 46 47 48 49 50 51 51 52 52 53 53 53 53 52 51 51 50
17 18 19 20 20 21 22 23 25 27 28 29 31 32 33 34 35 37 38 39 41 42 43 45 46 48 49 51 52 54 55 55 56 57 58 58 58 59 59 58 57 56 54
18 19 19 20 21 22 24 26 27 29 30 31 32 33 35 36 37 38 40 42 44 45 47 49 51 53 55 56 58 59 61 62 62 63 63 64 64 65 65 64 63 62 60
19 19 20 22 23 24 26 28 29 31 32 33 34 35 36 38 39 41 43 45 47 50 52 54 56 58 61 63 65 67 68 70 70 71 70 71 71 71 71 70 69 68 66
19 20 21 23 24 26 28 29 31 32 33 34 36 37 39 41 42 44 47 49 52 54 57 59 62 65 68 70 72 75 76 78 78 79 78 78 78 78 77 77 76 74 73
20 22 23 24 26 28 29 30 32 33 35 36 38 40 41 43 45 48 50 53 55 58 61 64 67 71 74 77 80 84 86 88 89 89 89 89 88 86 85 84 83 81 79
21 23 24 26 27 29 30 32 34 35 37 39 41 42 44 46 48 51 53 56 58 61 65 68 72 76 79 84 88 92 95 98 100 101 100 100 98 97 95 93 90 89 87
22 23 25 26 28 30 31 33 35 37 39 41 42 44 46 49 51 53 56 58 61 65 68 72 77 80 85 90 95 99 103 106 108 109 110 110 108 107 105 103 99 96 94
22 24 26 28 30 31 33 35 36 39 41 42 44 47 49 51 54 56 59 61 64 67 71 76 80 84 90 95 100 104 108 111 112 112 112 113 113 113 113 113 110 106 102
23 25 27 29 31 32 34 36 39 41 42 44 46 48 51 53 56 58 61 63 66 70 74 78 83 89 94 99 103 106 107 106 104 102 101 101 103 106 110 115 117 116 112
23 25 27 29 32 33 36 38 40 42 44 46 47 49 52 54 57 59 62 65 68 72 76 81 87 92 97 101 102 101 98 95 92 88 87 86 88 92 97 104 112 118 119
24 26 28 30 32 34 36 38 40 42 44 46 48 50 53 55 57 60 62 65 69 74 79 84 90 94 97 97 95 92 89 86 84 83 83 83 83 84 87 93 100 109 116
24 26 28 29 31 33 35 37 39 41 44 46 48 50 53 55 57 60 63 67 71 76 81 87 91 94 93 91 88 84 82 81 81 81 80 80 81 82 85 88 93 99 107
24 26 28 30 32 34 36 38 40 42 44 46 48 51 53 55 58 61 64 68 73 78 83 88 90 90 88 85 81 79 78 78 78 78 78 77 77 78 81 86 91 95 101
25 27 29 31 33 35 37 39 42 44 46 48 50 52 54 57 59 62 66 70 75 80 85 88 88 87 84 80 77 75 74 74 74 74 74 72 70 70 73 78 85 92 97
26 29 31 32 35 37 39 41 44 46 48 50 52 54 56 58 61 64 68 72 77 82 85 86 85 83 80 77 75 72 70 70 70 70 69 67 64 63 64 70 77 85 94
27 30 33 35 37 39 41 43 45 48 51 53 55 57 59 61 63 66 70 74 78 82 84 84 82 79 77 75 73 70 67 66 65 64 63 61 58 56 56 60 67 76 86
28 31 34 37 39 41 43 45 47 50 53 55 57 60 61 63 65 68 72 76 79 82 82 81 80 77 74 73 72 71 68 61 58 57 56 54 51 49 47 49 56 66 78
29 32 35 38 41 43 45 47 50 52 55 58 60 62 64 66 68 70 74 77 80 81 80 79 77 75 72 70 70 71 70 66 58 50 48 47 45 43 40 39 44 55 68
30 33 36 39 42 45 47 50 52 54 57 60 62 64 66 68 70 72 75 77 79 79 78 76 75 73 71 68 67 67 67 66 62 53 43 41 40 39 36 34 35 44 58
33 35 38 41 44 47 49 51 54 56 59 61 64 66 68 69 71 73 76 77 78 78 76 74 73 71 70 68 66 64 62 60 58 56 45 37 35 35 33 31 30 36 47
36 38 40 42 45 48 51 53 55 58 60 63 65 67 69 71 72 74 76 77 77 76 74 72 70 69 68 67 65 64 62 58 54 51 45 38 34 30 30 27 27 31 41
Wind_Direction
22 0 345 333 326 320 315 311 309 307 306 305 304 303 302 301 300 299 298 296 295 294 293 292 291 289 288 286 284 281 279 276 274 272 270 268 265 262 258 256 254 251 249
347 334 326 320 316 312 310 308 306 305 304 304 303 302 301 300 299 298 297 296 295 294 293 292 291 289 288 286 284 282 279 277 274 272 270 268 266 262 259 256 253 251 249
326 321 317 313 310 308 307 306 305 305 304 304 303 302 301 300 299 298 297 296 295 294 293 292 291 289 288 286 284 282 280 278 275 272 270 268 266 263 260 257 254 251 249
317 314 312 309 307 306 306 305 305 305 304 303 302 301 300 299 298 297 296 295 294 293 292 291 290 288 287 286 284 282 280 278 276 273 270 267 265 263 260 257 254 252 249
311 310 308 307 306 306 305 305 305 304 303 303 302 301 300 299 298 297 296 295 294 293 291 290 288 287 286 285 283 281 280 278 276 273 270 268 265 262 260 257 255 252 249
308 308 307 306 306 307 307 306 306 305 304 303 302 301 300 299 298 298 297 296 295 294 293 291 290 288 287 285 283 281 279 277 275 273 270 267 265 262 259 257 254 252 249
308 308 308 308 308 308 307 307 306 305 305 304 303 302 301 300 299 299 298 297 297 296 295 294 292 291 289 287 285 282 280 277 275 272 269 267 264 262 259 257 254 251 249
310 310 310 310 309 309 308 308 308 307 306 305 304 303 303 302 301 301 300 300 300 299 298 297 295 294 292 290 287 285 282 279 276 273 269 266 263 261 258 256 253 251 248
310 310 310 309 309 309 309 309 309 309 308 307 306 305 304 304 303 303 302 302 302 302 300 299 298 296 295 292 290 287 284 281 277 273 270 266 263 260 257 255 253 250 247
311 311 311 310 310 310 311 311 310 310 309 309 308 307 306 305 305 305 305 304 304 303 302 300 299 298 296 294 292 289 287 283 279 275 272 267 263 259 256 253 251 249 246
311 311 311 311 312 312 313 312 312 312 311 311 310 309 308 307 307 306 306 305 305 303 302 302 301 299 298 296 294 292 290 286 282 278 274 269 264 260 255 252 249 247 245
313 313 313 314 314 315 314 314 314 314 313 313 312 311 310 309 308 307 307 306 305 304 303 303 302 300 299 298 296 294 291 288 284 280 276 271 266 261 256 251 248 245 243
316 317 317 317 317 317 318 318 317 316 315 314 313 312 311 310 309 308 307 306 306 305 305 304 303 302 301 299 297 294 291 288 285 281 277 273 268 262 257 252 247 243 241
320 321 321 321 321 321 322 321 320 319 317 316 315 314 312 311 310 309 308 307 307 306 306 305 304 304 302 300 298 295 292 289 286 282 278 273 269 264 258 252 247 243 239
324 325 325 325 325 326 325 324 322 321 319 318 316 315 313 312 311 310 309 308 308 308 307 307 307 306 304 302 300 297 294 291 287 282 277 273 268 263 258 253 248 242 238
329 330 330 330 329 329 328 326 325 323 322 320 318 316 315 313 312 311 310 310 310 309 309 309 309 307 306 304 301 299 296 293 289 285 280 274 269 263 258 252 247 242 238
334 334 334 333 333 332 331 330 328 327 325 323 320 318 317 316 314 313 312 312 312 312 312 312 311 310 308 306 304 302 299 296 292 288 283 278 271 264 258 252 247 242 238
337 336 336 335 335 335 334 333 332 331 329 327 324 322 320 318 317 315 315 315 314 315 315 315 314 312 311 309 307 304 302 299 296 292 288 282 275 267 259 252 246 241 237
339 338 337 337 336 336 335 335 334 333 332 330 328 326 323 322 320 318 318 317 318 318 318 318 317 315 313 311 309 307 305 303 300 297 293 287 280 271 262 253 246 240 236
341 340 339 338 336 336 336 336 335 335 334 332 331 329 327 325 323 322 321 321 321 321 321 321 319 318 316 314 313 311 310 307 305 301 297 293 286 277 265 254 246 239 235
343 342 340 339 337 337 336 336 336 336 335 334 333 331 329 327 326 325 324 324 324 324 324 323 322 321 319 317 315 314 313 311 309 305 302 298 292 283 271 258 247 238 232
343 342 341 340 339 338 338 337 337 336 336 335 334 333 331 330 329 328 327 327 327 327 326 325 324 323 322 320 319 318 317 316 313 310 307 303 297 289 278 264 249 237 230
341 341 341 341 340 339 339 338 337 337 336 336 335 334 333 332 331 330 330 330 330 330 329 328 326 325 325 323 322 321 321 321 319 317 312 307 302 296 285 270 252 237 228
337 339 340 340 340 340 339 339 338 337 337 336 336 335 334 333 333 332 332 332 332 332 331 329 328 327 327 327 325 324 324 323 323 323 319 312 307 301 292 277 256 237 227
333 335 337 339 339 339 339 338 338 337 337 337 337 336 335 335 334 334 334 334 334 333 332 331 330 329 329 329 328 328 327 326 324 324 324 318 310 304 297 282 259 239 227
331 333 334 336 337 338 337 337 337 337 337 337 337 337 336 336 336 336 336 336 335 335 334 333 332 331 331 331 331 330 330 329 326 325 324 322 316 306 297 284 263 242 229